Wind_Speed
27 26 26 25 25 26 26 27 29 30 30 28 27 27 27 26 25 25 24 24 25 26 25 25 22 19 19 19 20 20 17 14 13 13 13 12 11 10 10 10 10 10 10 11 11 12 14 14 14 14 14 14 14 14 15 16 16 16 16 16 18 19 20 22 23 23 23 23 23 22 22 22 22 23 24 25 27 27 27 28 28 29 30 31 31 32
27 26 25 25 26 26 27 28 29 30 29 28 28 28 28 27 26 25 25 24 26 26 26 26 23 19 19 20 20 21 18 14 14 14 14 14 12 11 11 11 11 11 11 12 12 12 14 15 16 16 15 14 14 14 15 16 16 16 16 17 18 19 20 22 23 24 24 24 23 22 22 23 23 22 23 24 26 27 28 28 28 29 30 31 32 33
27 26 25 26 27 27 28 29 29 29 29 29 29 29 28 27 27 26 26 26 26 27 26 26 24 19 19 20 20 22 20 16 16 16 15 15 13 13 13 12 12 12 13 12 12 12 13 15 16 16 17 16 15 15 15 16 16 17 17 17 18 19 20 22 23 24 24 24 24 23 22 23 23 24 24 24 25 26 27 28 29 29 30 31 32 33
27 26 26 27 27 27 28 29 29 29 29 30 30 29 28 28 28 29 28 27 27 28 27 27 25 20 19 21 20 22 22 18 18 17 16 16 15 15 15 14 14 14 14 14 13 14 14 15 16 16 17 17 16 16 16 17 17 17 18 18 19 20 20 22 23 24 25 25 24 24 23 23 23 24 25 25 25 26 27 28 29 30 30 31 31 32
28 28 28 27 27 28 29 29 29 30 31 31 30 30 30 29 30 30 29 28 27 29 28 27 26 21 20 22 21 22 23 20 19 18 18 18 17 17 16 15 16 15 15 15 14 15 16 16 16 17 18 17 17 17 17 18 18 18 19 19 20 21 21 22 23 24 25 25 25 25 25 24 24 24 25 26 27 27 27 28 29 30 31 32 32 32
30 30 29 28 28 28 28 29 30 31 32 32 31 31 31 31 31 31 30 29 29 30 28 27 29 24 21 22 22 22 24 22 22 20 19 19 19 19 18 18 18 17 16 16 15 16 17 17 18 19 19 18 18 19 19 20 20 20 20 21 21 22 23 23 23 24 25 25 26 26 26 26 25 25 25 27 28 29 29 29 30 31 32 33 34 34
30 30 30 29 28 27 28 29 30 31 32 32 32 32 32 32 32 32 31 31 30 30 28 28 31 27 22 21 22 23 24 24 23 22 21 21 21 21 20 20 20 19 18 17 17 17 18 18 19 20 20 20 20 21 22 21 21 21 21 22 23 23 24 24 25 25 25 25 25 26 26 27 27 26 26 27 29 30 30 31 32 33 34 34 35 35
30 30 30 29 28 28 28 29 30 32 33 33 33 33 33 33 33 34 33 33 32 31 30 29 31 31 23 19 21 25 25 24 23 23 23 23 22 23 23 22 21 20 20 20 20 20 19 20 20 21 22 22 22 24 24 24 23 22 23 24 24 25 25 26 26 26 26 26 26 26 27 27 28 28 28 29 29 30 31 32 33 34 35 36 37 37
32 32 31 30 30 30 30 31 32 32 33 34 34 34 34 34 35 35 36 35 34 33 32 30 30 34 27 18 20 25 25 23 23 23 25 25 24 24 25 24 23 22 22 22 23 23 22 22 22 22 23 24 24 26 26 26 25 24 24 25 26 27 27 27 27 27 27 27 28 28 28 29 29 30 30 31 31 31 32 33 35 36 37 38 38 38
34 34 33 32 32 32 32 33 33 33 33 34 34 35 35 36 36 37 38 37 36 35 33 31 30 34 31 20 21 25 24 23 23 24 26 26 26 27 27 26 25 25 25 25 26 26 25 24 23 24 25 25 26 27 28 29 27 26 26 27 28 28 29 29 29 29 29 29 29 29 30 30 31 31 32 32 32 33 33 34 36 38 39 39 40 41
36 35 35 34 33 33 33 33 33 33 34 34 35 35 36 37 37 38 39 38 39 36 33 32 30 33 35 24 20 24 25 24 24 25 26 26 27 28 28 28 27 27 28 28 28 29 28 26 26 26 27 27 28 29 30 31 30 29 28 29 30 30 31 31 31 31 31 31 31 31 31 31 32 33 33 34 34 34 35 35 36 39 40 41 42 42
38 37 37 36 35 34 34 34 35 35 35 35 36 36 36 37 38 39 40 40 41 38 35 34 32 33 36 26 19 22 24 24 25 26 27 28 29 30 30 30 30 31 31 30 31 31 30 29 29 29 29 30 30 30 32 33 33 32 31 32 32 33 33 33 33 33 33 33 33 33 33 33 33 34 34 35 36 37 37 38 38 39 41 42 43 44
40 40 39 39 38 38 37 37 37 37 37 37 37 37 37 38 38 38 40 41 42 40 39 38 36 35 35 29 25 24 23 25 27 27 28 29 30 31 33 34 34 33 33 33 33 32 32 32 32 32 32 32 32 32 33 35 36 36 35 35 35 35 35 35 35 36 36 36 36 36 36 36 36 36 36 36 37 37 39 40 41 42 42 43 44 45
44 43 43 42 41 41 39 39 39 38 38 38 38 38 38 39 39 39 40 42 42 42 42 42 40 37 33 31 31 28 24 24 27 27 28 30 31 33 35 36 36 36 35 35 35 34 34 34 35 35 35 34 34 34 35 37 39 40 39 38 38 38 38 38 38 38 39 39 39 39 38 38 38 38 38 38 38 39 39 41 42 43 44 45 46 46
48 47 46 45 44 43 42 41 40 40 40 40 40 40 40 40 41 41 42 42 42 43 44 45 43 39 35 33 34 33 27 25 26 29 30 31 32 34 36 37 38 38 37 37 36 36 36 37 37 38 37 36 36 37 38 40 42 43 43 42 41 41 41 40 40 41 41 42 42 42 41 41 41 41 41 40 40 41 42 42 43 43 45 47 48 48
50 49 47 47 46 44 44 44 43 43 44 43 44 43 42 41 42 43 43 43 43 44 45 46 45 41 38 37 37 37 33 29 29 32 32 33 34 35 37 40 40 39 39 38 38 38 39 40 41 41 41 40 40 40 41 42 44 45 45 44 44 44 44 44 44 44 44 45 45 45 44 43 43 44 43 43 43 44 45 46 46 46 45 46 49 50
51 50 49 48 47 46 45 46 45 45 46 46 46 45 43 43 43 44 45 44 45 46 46 44 44 42 40 40 39 39 38 35 34 34 34 35 36 37 40 41 41 41 41 40 40 41 42 43 44 44 44 43 43 43 44 44 45 45 46 46 47 48 48 47 47 47 47 47 48 47 46 46 46 46 45 45 46 47 48 49 50 49 48 48 49 51
51 51 51 49 48 47 47 47 47 47 47 48 47 45 45 46 46 46 47 47 47 48 47 44 43 41 40 41 40 39 40 40 39 38 37 38 39 41 42 42 42 43 43 42 42 44 45 46 47 47 47 46 46 45 45 46 47 47 48 49 50 51 51 50 50 50 50 50 50 50 49 49 48 48 47 47 48 49 51 53 53 52 50 50 50 51
53 53 53 52 51 50 50 49 50 49 49 50 49 48 48 49 49 49 49 49 48 49 48 45 44 43 41 41 41 40 41 42 42 42 42 42 42 43 42 42 43 44 44 44 44 45 47 48 48 49 49 49 48 48 48 49 50 51 51 51 52 53 53 53 54 54 53 53 52 52 52 51 51 50 49 49 49 51 53 55 56 54 52 52 52 53
53 53 54 54 53 52 52 52 52 51 51 51 50 50 50 50 51 51 50 50 50 50 50 48 47 45 40 39 41 42 42 43 43 44 45 45 45 45 45 45 46 46 46 46 47 47 48 49 50 51 51 51 52 52 53 53 53 54 54 54 54 55 56 56 57 57 56 55 54 54 54 54 54 52 51 50 51 52 55 57 57 56 54 53 53 55
52 54 55 56 56 56 55 54 52 50 50 50 50 51 51 50 51 52 52 52 51 52 52 52 51 48 41 39 42 43 43 44 44 46 46 47 47 47 47 47 47 47 47 48 48 49 50 51 52 53 53 54 54 55 55 55 55 56 56 56 56 57 57 58 59 59 58 57 56 56 57 57 56 54 52 51 51 53 56 57 57 57 57 56 55 55
53 55 56 57 58 58 56 54 52 50 50 51 52 53 52 52 53 53 54 54 54 53 54 54 55 50 43 41 43 44 45 46 47 48 49 50 50 50 49 49 49 49 49 49 49 49 50 51 53 54 55 55 56 56 57 57 57 57 57 57 57 58 59 59 60 60 59 59 59 60 60 60 59 56 53 52 52 54 57 58 58 59 59 58 56 55
51 52 54 57 58 57 56 55 55 55 54 53 55 55 55 56 56 56 57 57 56 56 55 56 58 53 45 43 43 45 47 49 50 51 51 52 52 52 52 52 52 51 51 51 51 50 50 51 53 54 55 56 56 57 57 57 57 57 58 58 59 59 59 60 60 60 60 61 62 62 62 62 61 59 55 53 53 54 57 59 60 60 59 59 57 56
50 51 53 56 57 57 58 58 58 58 58 57 57 57 57 58 58 58 58 57 58 59 58 59 61 54 46 44 44 46 49 50 51 51 51 52 53 53 54 55 55 54 54 54 53 52 52 52 54 55 55 55 55 56 57 57 57 58 58 60 60 60 60 61 62 62 62 63 64 64 64 62 61 60 58 56 55 55 58 60 61 60 58 58 57 55
51 52 53 54 56 58 59 61 61 61 61 60 59 57 57 58 58 59 59 59 61 61 60 64 64 55 47 46 46 47 50 52 53 52 51 53 54 55 57 58 58 58 57 56 56 55 55 55 55 56 56 56 56 56 57 58 58 59 60 61 61 61 62 62 63 63 64 65 65 64 64 62 60 60 59 58 58 58 59 59 59 58 57 57 56 55
51 52 53 54 56 59 60 60 60 59 58 58 58 56 56 55 56 58 58 59 61 60 60 64 64 55 48 48 49 50 52 54 55 54 52 54 55 57 59 60 60 59 58 58 58 58 58 57 55 54 54 55 56 57 58 58 59 59 59 60 61 62 62 63 64 64 65 65 65 64 64 62 60 60 60 60 60 59 58 56 56 56 55 55 54 53
53 54 55 55 57 58 58 58 58 56 57 57 56 56 55 55 56 56 58 60 61 60 61 63 61 57 53 51 50 50 52 55 57 56 55 55 55 57 58 59 59 59 60 61 61 60 60 59 57 55 54 55 57 58 59 59 59 59 59 60 61 62 63 63 64 64 64 64 64 65 65 64 63 62 63 61 58 56 54 54 53 53 53 52 51 50
57 57 57 56 56 56 56 58 59 58 58 57 56 56 55 55 56 57 59 59 58 60 63 59 57 58 56 52 51 50 52 55 55 55 57 57 55 55 56 56 58 59 61 62 62 61 61 61 60 60 59 60 60 59 59 59 59 60 61 61 61 63 64 64 64 63 63 64 64 65 67 68 66 64 62 59 54 52 52 52 52 51 51 50 49 49
59 59 58 57 57 56 56 57 58 59 59 59 58 58 57 57 58 58 58 57 56 60 61 56 56 59 57 53 52 51 52 53 52 53 56 57 56 56 57 58 59 60 61 62 62 62 62 63 63 64 65 65 64 62 61 60 61 62 63 63 64 64 65 65 65 65 65 66 66 67 68 68 65 62 60 56 53 52 52 52 52 50 49 49 48 47
56 57 57 56 57 56 56 56 57 59 60 61 61 60 60 60 59 59 59 58 59 61 60 57 58 59 57 54 53 52 52 53 53 53 55 56 58 60 61 61 62 62 62 62 63 65 66 66 67 68 69 69 68 67 66 65 65 65 65 66 66 67 68 69 69 68 68 68 66 66 65 64 63 61 59 57 55 54 55 54 53 50 48 47 47 46
53 54 55 55 57 58 57 56 56 57 58 59 59 59 60 61 61 61 61 60 59 59 57 56 58 60 56 53 53 53 54 56 56 56 55 56 59 62 63 63 63 63 63 64 65 66 68 69 71 71 70 70 70 70 68 67 66 65 65 65 66 67 68 68 68 67 66 65 64 63 63 62 62 62 60 58 57 57 56 55 52 48 46 46 46 46
51 52 53 53 55 56 54 55 57 56 57 58 59 59 60 62 62 61 60 58 57 56 54 55 59 59 53 49 50 52 55 56 54 53 53 55 57 60 62 62 61 61 62 63 64 65 66 68 69 69 69 68 68 68 66 65 63 61 61 61 61 62 62 63 62 62 62 62 62 63 63 63 62 61 59 57 56 56 55 53 49 46 45 45 45 45
53 53 53 54 55 54 51 52 54 55 58 61 59 57 57 57 58 58 58 58 57 55 54 54 55 52 48 48 50 51 50 50 50 50 52 54 56 58 58 59 60 60 60 60 61 61 62 64 64 65 64 65 65 65 64 63 61 59 58 58 59 59 60 60 60 60 60 61 62 62 61 61 59 57 56 54 53 52 51 49 47 46 45 45 44 43
58 58 57 57 58 55 51 53 56 59 62 59 55 53 52 53 54 56 57 57 53 51 51 52 51 48 48 49 49 48 47 47 49 52 53 56 58 58 57 58 59 60 60 60 59 59 60 60 61 61 61 62 63 63 63 63 61 60 59 59 60 61 61 61 61 61 60 60 59 59 58 57 56 55 54 52 51 50 49 49 48 48 47 47 46 44
63 64 63 64 63 60 57 59 62 65 62 55 50 51 51 52 53 54 56 54 50 49 50 52 50 48 48 49 49 50 51 50 50 51 52 55 56 56 56 56 57 57 58 59 59 59 59 60 60 60 60 61 62 62 63 63 63 62 62 62 62 61 61 61 60 60 59 58 57 57 56 55 54 54 53 53 52 52 52 52 51 51 51 50 49 47
64 65 64 63 62 61 63 66 68 67 62 56 53 52 51 52 54 56 57 56 53 55 56 56 55 53 51 51 51 51 52 51 51 50 51 53 53 53 54 55 56 56 56 57 58 59 59 60 60 60 60 60 61 62 63 63 63 63 63 63 62 60 58 57 57 57 57 57 58 58 58 57 55 54 55 55 55 55 56 56 55 55 55 54 52 51
63 61 59 57 56 56 60 65 66 66 65 61 56 53 54 57 59 62 64 62 60 62 62 62 61 60 59 57 56 53 52 51 50 50 52 54 53 52 54 54 55 57 56 56 57 58 59 60 59 59 60 60 61 62 62 62 63 64 64 63 62 60 57 55 54 54 56 57 58 59 59 59 58 58 58 58 59 59 59 59 58 58 58 58 57 56
61 60 58 58 58 58 59 63 66 70 70 64 57 56 60 62 65 68 70 68 67 66 66 66 65 65 64 63 63 61 60 59 56 55 58 60 57 56 57 57 58 58 57 57 58 59 60 61 60 60 60 60 61 62 63 63 64 64 64 64 63 61 59 56 55 55 56 57 58 60 60 61 62 62 63 62 62 62 62 62 62 62 62 62 62 61
60 60 59 60 61 61 63 65 68 72 72 66 61 62 64 66 67 68 68 70 71 70 69 70 69 69 69 69 69 68 67 68 65 63 66 68 66 65 66 65 65 65 64 64 65 64 65 65 64 63 62 62 62 62 63 63 64 64 64 64 64 63 62 60 59 58 59 60 62 64 65 66 66 67 67 67 66 66 66 66 66 66 66 66 65 65
59 59 59 60 61 62 63 64 66 70 71 67 64 65 66 66 64 62 63 68 71 70 71 72 72 71 71 71 71 71 71 72 72 70 71 73 72 71 72 72 72 72 71 72 72 72 72 72 72 71 70 69 68 68 68 68 68 67 66 66 67 66 66 66 66 66 67 68 71 73 74 74 74 73 72 72 71 71 71 71 71 71 70 70 69 70
55 56 57 58 58 58 59 61 63 66 67 65 64 65 66 66 64 62 64 67 67 67 69 71 70 69 69 69 70 71 72 74 75 75 75 76 75 75 75 75 75 75 76 76 76 77 77 76 76 77 77 77 77 77 78 77 76 75 73 72 72 72 72 73 73 73 75 77 79 81 81 81 80 78 78 78 77 77 77 76 76 76 75 74 73 73
53 53 55 55 54 54 55 56 59 61 63 62 62 63 65 65 64 64 66 65 64 63 65 67 67 67 66 67 68 70 70 71 73 74 76 77 77 77 76 76 76 75 76 76 77 78 79 78 79 79 79 80 81 82 82 82 82 82 82 81 80 80 80 80 80 81 83 84 86 86 85 84 83 82 82 82 82 82 82 81 81 79 78 77 76 76
53 53 54 54 53 54 54 55 57 59 58 57 56 58 61 63 63 64 63 62 61 60 60 62 64 65 65 65 66 68 69 70 71 72 73 74 75 75 75 75 76 76 76 76 76 77 78 78 79 80 80 81 82 83 83 84 84 85 86 86 86 86 86 87 87 88 89 89 89 88 87 86 85 84 84 84 85 85 84 83 82 81 79 79 78 78
57 57 57 56 55 56 57 58 58 56 54 54 55 58 61 62 63 63 62 60 60 60 60 61 62 64 65 66 66 67 67 67 67 67 68 68 69 70 70 70 71 72 73 74 75 75 75 75 76 76 76 77 78 79 80 81 81 82 83 84 85 86 87 88 89 90 90 90 90 89 88 87 87 86 86 86 85 85 84 84 83 82 81 81 81 81
59 59 59 58 58 58 59 59 58 57 56 56 58 59 61 62 62 63 63 62 61 62 62 63 63 64 65 66 66 65 65 65 65 65 66 66 67 67 67 67 66 66 67 68 69 70 70 70 70 70 70 70 71 72 73 73 74 74 75 77 78 79 80 81 82 83 84 85 85 85 85 85 85 85 86 86 86 86 85 85 84 83 83 83 83 83
61 61 61 61 61 61 62 61 60 59 59 59 59 60 61 63 64 65 65 65 64 64 64 64 65 65 67 67 67 67 67 67 68 68 69 69 69 68 68 67 66 66 66 67 68 69 70 70 70 71 70 70 71 71 71 71 71 71 71 71 72 73 74 75 76 76 77 77 78 78 79 80 81 82 83 83 84 85 85 85 84 84 84 84 84 84
63 64 65 65 65 65 65 64 62 62 62 62 62 62 63 64 66 68 69 69 68 67 67 68 68 69 70 71 71 71 71 71 72 72 72 72 71 70 70 70 70 70 70 71 72 72 73 73 73 73 73 73 73 73 73 72 72 71 71 71 71 71 72 72 73 74 74 75 75 76 76 77 78 78 79 80 81 81 81 81 80 80 80 81 81 80
67 67 67 68 68 68 67 66 65 65 66 65 64 64 65 67 69 70 71 72 71 71 70 71 71 72 73 73 75 75 75 75 75 75 75 74 74 74 74 74 74 74 74 75 75 75 75 75 75 75 75 74 74 75 74 74 73 72 72 71 70 70 70 70 71 72 72 73 74 75 75 76 76 77 78 78 78 77 77 76 75 75 76 76 76 75
71 71 70 70 70 71 70 69 69 69 68 68 67 67 68 69 71 72 73 74 74 74 74 74 74 75 75 76 77 78 79 79 79 79 79 78 78 78 77 77 78 77 77 77 78 78 78 78 78 78 77 77 77 76 75 74 74 73 72 71 70 69 69 70 70 70 70 71 71 72 73 73 74 74 75 75 75 76 76 75 75 74 74 73 73 71
72 73 72 72 72 72 71 70 71 71 71 71 70 70 71 72 73 74 75 75 76 76 77 77 77 78 78 79 79 81 82 82 83 83 83 83 83 82 82 82 82 81 81 81 81 81 81 81 81 80 80 79 79 78 77 75 74 73 72 71 69 69 69 70 70 70 70 70 70 70 70 70 71 71 72 73 74 73 72 70 69 69 69 68 67 65
72 72 71 71 72 71 70 69 70 71 72 72 72 72 72 73 73 73 74 75 76 77 77 78 79 80 80 80 80 82 83 83 84 85 86 86 86 86 86 86 86 85 85 85 84 84 84 84 84 84 83 82 81 80 79 78 76 75 74 72 71 72 73 73 73 73 72 71 70 70 70 69 69 68 69 69 67 62 58 55 54 54 55 56 56 55
Wind_Direction
226 228 229 231 231 231 232 230 230 232 231 231 232 234 237 236 235 237 238 238 241 243 245 246 242 237 241 248 252 254 254 255 250 242 236 235 236 237 238 242 248 255 265 276 285 290 294 298 298 297 297 299 301 304 306 308 310 312 314 314 314 316 316 316 316 316 316 315 312 311 309 308 307 304 300 298 297 296 295 294 292 291 290 290 290 289
228 230 231 231 231 231 232 232 233 234 234 233 232 234 237 239 237 237 239 239 241 244 245 246 244 237 237 242 250 255 255 251 243 236 234 236 238 241 244 249 254 260 267 274 281 287 292 295 296 297 297 297 300 303 305 306 308 311 314 315 315 315 314 313 313 315 315 315 314 311 308 306 307 306 302 298 297 298 297 296 295 293 291 290 289 289
229 231 232 232 232 232 233 234 235 236 236 236 235 234 236 240 240 240 240 240 242 245 246 247 243 235 236 240 245 252 254 249 242 237 236 240 243 246 248 253 259 266 271 277 283 287 288 289 292 295 296 297 299 301 302 303 306 310 313 316 316 315 312 311 311 313 315 316 316 313 309 305 304 304 302 300 299 298 297 297 297 296 293 291 290 290
230 231 232 234 234 234 234 235 236 237 238 238 238 238 237 239 241 241 241 241 243 245 245 246 244 234 235 243 244 248 252 251 246 241 239 242 246 250 254 259 264 270 276 283 287 287 285 287 290 292 293 295 298 299 300 301 304 308 312 315 316 314 312 311 311 312 314 315 316 315 312 308 304 302 301 301 299 297 296 297 296 296 294 293 291 290
231 232 234 236 236 236 236 237 237 238 239 240 240 241 241 240 241 242 243 245 245 246 246 246 246 237 235 243 243 245 250 250 246 242 239 243 245 250 255 259 264 269 275 279 282 284 286 290 291 289 289 291 294 296 298 300 304 309 312 314 315 314 313 312 312 312 313 314 314 315 315 312 308 305 302 300 298 297 296 295 294 293 293 292 291 290
233 235 236 237 238 238 239 239 239 239 241 242 242 242 243 243 243 244 246 247 246 247 248 250 251 243 235 241 242 243 247 247 245 242 240 243 247 250 254 258 262 267 270 272 276 281 285 289 290 288 287 288 291 294 296 299 304 308 311 312 313 313 313 314 315 314 314 313 313 314 314 314 313 309 305 302 300 298 297 296 294 293 291 290 290 289
235 237 239 240 241 241 243 243 242 242 243 244 243 244 245 246 246 246 247 248 247 248 250 253 256 252 238 236 240 241 244 244 243 243 243 245 250 254 255 257 262 267 268 270 275 279 282 285 286 286 285 286 291 294 295 297 301 306 309 309 310 311 312 313 314 314 314 313 313 313 314 315 315 313 309 305 302 301 300 299 296 294 292 290 289 288
237 239 241 243 244 244 245 246 246 245 245 245 245 245 246 247 248 248 248 248 248 249 251 252 258 260 247 231 235 240 242 243 242 243 245 247 251 256 259 260 263 267 269 272 275 278 280 283 283 282 282 284 289 293 294 295 298 303 305 306 307 309 309 310 312 313 313 313 314 315 315 316 316 315 312 309 306 303 301 300 298 296 293 291 289 288
237 239 240 241 242 243 244 245 246 247 247 247 247 246 247 248 248 249 249 249 249 250 251 252 257 261 255 230 229 240 242 242 242 242 245 248 252 257 261 263 265 268 271 275 277 279 281 282 280 279 279 282 287 290 292 292 294 299 302 302 303 305 305 306 309 311 310 311 313 315 316 316 316 315 313 312 309 306 303 301 299 297 295 293 291 290
238 240 241 241 241 243 244 246 247 248 249 249 249 249 248 249 249 250 251 251 251 250 251 254 256 262 260 239 226 238 243 242 242 243 245 248 252 256 259 263 266 268 271 274 276 278 280 280 278 277 278 281 285 287 289 289 290 294 298 299 299 300 301 302 305 307 308 308 309 312 314 314 314 314 314 312 310 308 305 303 300 297 296 295 293 292
239 241 243 243 243 244 245 247 248 249 251 251 252 252 251 251 250 251 252 253 253 252 251 254 256 261 262 248 225 233 242 242 242 244 246 248 250 254 258 262 265 267 269 272 274 276 278 278 277 277 279 281 282 284 286 286 287 290 293 294 294 294 297 298 300 303 304 304 304 306 308 310 310 311 312 313 312 310 308 305 301 298 296 295 294 293
240 241 243 244 244 244 245 247 249 250 251 252 252 253 253 253 252 251 252 253 253 253 254 255 255 256 259 256 238 233 238 243 243 243 245 247 249 253 257 260 262 264 266 268 270 272 274 275 276 278 279 280 281 283 283 284 285 287 289 290 290 290 292 295 296 298 300 300 300 301 303 305 307 308 310 310 311 311 310 308 304 301 298 296 294 293
242 242 243 245 246 246 246 247 249 250 251 252 252 253 253 254 254 253 253 253 253 254 255 256 254 253 257 262 258 244 237 241 246 245 246 248 250 253 255 258 260 262 265 266 268 270 273 275 276 276 277 277 280 281 281 282 284 285 286 287 287 287 288 291 293 294 295 297 297 298 299 301 303 305 307 307 308 308 308 307 306 303 300 297 295 293
242 242 243 244 246 247 247 248 250 251 251 252 252 252 253 254 256 256 255 254 254 254 255 256 255 254 257 262 263 257 245 242 247 250 250 250 251 253 255 257 259 261 263 265 267 270 272 273 274 275 275 276 277 278 278 280 282 283 284 285 285 284 285 288 290 291 292 293 294 295 296 297 299 302 303 304 305 306 306 305 304 303 301 299 296 293
242 243 243 244 244 245 247 247 248 248 249 250 251 251 252 254 256 257 256 256 255 255 255 256 256 257 259 261 263 263 256 249 249 251 251 251 251 253 255 257 259 260 262 265 267 269 270 271 272 273 273 273 274 275 276 278 280 282 283 284 284 283 283 286 288 288 290 291 292 293 294 295 297 299 300 301 303 304 305 304 302 300 298 297 296 294
245 245 245 246 246 246 246 246 246 247 248 249 250 251 254 256 257 258 257 257 257 256 255 256 257 259 260 261 262 264 262 256 251 250 251 253 254 255 257 258 259 261 263 265 267 269 270 270 271 271 272 273 273 274 276 277 279 281 282 283 283 283 284 286 286 286 288 289 290 291 293 294 296 297 298 300 301 302 302 302 302 300 297 296 295 294
245 246 246 246 247 247 247 247 247 248 249 250 251 254 256 256 256 256 257 257 257 256 256 256 257 259 261 262 262 264 266 263 257 254 253 255 256 256 257 259 261 263 265 266 267 268 269 269 270 271 272 272 273 274 275 276 277 278 280 281 282 283 284 285 285 285 287 288 289 291 292 292 294 296 297 299 300 300 301 301 301 300 299 298 296 294
243 243 244 244 245 245 245 246 247 247 249 251 252 254 254 254 254 254 255 256 256 257 257 257 258 259 260 262 263 264 265 266 264 261 258 256 256 255 256 258 260 263 265 266 267 268 269 270 271 272 273 273 273 274 275 275 276 277 278 280 281 283 284 285 284 285 286 288 289 290 291 291 292 294 296 298 299 299 300 300 301 300 299 299 298 296
244 244 244 244 244 245 245 245 246 248 249 251 252 252 251 252 253 254 255 256 257 259 259 258 258 257 257 261 264 264 264 265 266 265 263 260 258 258 258 258 259 261 262 263 264 265 267 269 271 272 273 274 275 275 275 275 276 277 278 280 281 282 283 284 284 285 286 287 289 289 289 290 292 293 295 297 297 298 299 299 300 300 300 300 300 298
246 246 246 246 246 246 245 246 248 250 250 250 251 251 252 253 254 255 255 256 257 258 260 259 258 257 257 260 263 264 264 265 266 266 265 265 263 261 260 259 259 259 260 261 262 263 265 266 268 269 271 272 273 273 274 275 276 277 278 279 280 282 283 283 284 284 286 287 288 288 288 289 291 292 294 296 297 297 298 299 300 300 300 300 299 298
245 246 246 246 246 246 247 248 249 249 249 249 250 250 251 253 254 255 255 256 256 257 259 260 258 257 257 259 261 263 264 265 265 265 265 265 265 264 263 262 261 261 261 261 261 262 264 265 266 267 268 268 269 270 271 273 274 275 276 277 279 280 281 281 282 283 285 287 287 287 288 289 290 291 293 295 296 297 298 299 299 299 299 298 297 296
244 245 246 246 246 247 248 248 247 246 246 247 248 249 250 251 252 253 253 254 255 255 256 258 259 258 257 257 260 263 265 266 266 266 266 266 267 267 267 266 266 265 265 264 264 264 264 265 266 266 267 267 268 269 270 271 272 274 275 276 277 277 278 279 280 282 284 286 286 286 287 288 289 291 293 294 295 297 298 297 297 297 297 296 295 293
242 244 244 245 246 247 247 247 246 246 245 245 246 248 249 249 250 251 252 254 254 253 254 255 258 260 258 258 260 263 265 266 266 267 268 269 270 270 270 270 270 269 268 268 268 267 267 266 266 266 266 268 269 270 270 271 272 273 274 275 275 276 277 279 280 282 283 284 285 285 286 288 290 292 293 294 295 296 296 296 296 296 295 294 294 291
238 240 242 244 245 245 245 246 247 247 247 247 248 249 249 250 251 250 251 251 251 252 254 254 257 261 261 261 262 263 264 264 264 266 268 270 272 273 273 273 272 272 271 271 272 272 271 270 269 268 268 268 269 270 271 272 272 273 274 275 276 277 278 279 280 281 282 282 283 284 286 288 291 292 294 295 295 295 294 294 294 294 293 292 292 290
239 240 241 242 244 244 245 246 247 248 249 250 250 250 250 251 251 250 250 250 250 253 255 256 258 262 264 263 263 262 263 264 264 265 266 267 269 271 272 273 273 274 274 274 275 274 273 272 272 272 272 271 271 271 271 272 272 273 274 275 277 277 278 279 280 281 281 282 283 285 287 288 290 292 293 294 295 294 293 292 291 291 291 290 291 290
239 240 240 240 242 244 246 248 249 250 252 252 252 252 251 251 251 251 252 252 253 256 257 258 261 263 261 260 260 260 261 262 263 264 264 265 266 268 270 272 274 275 275 275 275 274 273 273 273 272 273 273 273 273 273 273 273 274 275 276 277 278 279 279 280 281 282 284 286 287 288 289 290 291 292 293 293 293 292 290 289 289 289 289 290 289
239 240 241 241 242 245 246 248 248 249 250 251 251 251 251 250 250 250 251 252 256 259 258 258 262 263 260 257 257 258 260 261 262 263 264 264 264 266 268 270 273 274 275 274 274 274 275 275 274 274 273 273 273 273 274 275 276 276 277 277 278 279 279 280 281 283 284 286 288 289 290 290 291 291 292 292 293 292 290 288 287 288 288 288 288 287
242 242 243 243 244 245 247 249 248 248 249 251 251 251 252 252 252 251 252 254 258 259 258 260 264 264 260 257 255 256 258 260 261 263 264 265 266 266 268 269 269 270 271 273 274 274 275 275 276 277 276 275 275 275 276 278 279 280 280 280 280 280 281 282 283 284 285 286 287 288 289 290 290 291 292 292 293 291 288 287 287 286 287 286 286 285
245 245 245 245 246 246 248 251 252 252 253 253 253 253 254 254 254 255 255 257 258 259 260 261 261 262 261 258 256 256 259 262 262 261 262 264 266 267 267 267 267 267 269 271 273 274 275 275 276 276 277 277 278 279 279 280 281 281 282 282 282 282 283 283 284 284 285 286 287 287 288 289 290 291 292 293 292 289 287 286 286 285 285 284 283 283
248 247 246 246 246 245 245 248 251 253 254 255 255 255 255 255 256 257 258 258 258 259 261 261 261 262 262 262 260 257 259 264 263 261 260 262 264 267 267 267 267 268 269 270 272 274 275 275 275 275 276 277 279 280 280 280 280 280 280 281 282 282 283 283 284 285 286 287 288 288 288 289 290 291 292 293 291 288 287 286 286 285 283 282 281 281
246 246 246 246 246 245 243 245 247 248 251 253 253 254 256 257 258 258 259 260 260 262 264 265 263 262 262 265 264 259 258 261 263 262 262 262 264 267 268 268 268 268 270 271 272 273 274 275 276 276 277 277 278 279 279 279 279 279 279 280 280 281 282 283 285 286 287 288 288 288 288 289 290 291 292 292 290 288 287 287 286 285 282 280 280 280
241 243 243 243 244 245 245 246 246 245 245 245 246 251 257 260 261 262 262 261 262 264 265 264 264 263 263 264 264 260 258 259 261 263 263 263 264 265 265 267 268 269 269 270 270 272 273 274 276 277 278 279 279 279 279 279 280 280 280 280 280 280 281 282 283 284 284 285 286 287 288 289 290 291 292 291 290 289 288 287 286 283 280 280 280 279
238 240 241 241 242 244 245 244 243 242 241 241 246 252 257 258 260 261 262 262 263 263 261 260 262 263 261 259 259 259 258 258 259 260 262 262 261 260 262 267 270 270 269 269 271 272 273 274 275 277 278 279 280 280 281 281 281 281 280 280 280 280 281 281 281 282 282 283 285 286 287 288 290 291 291 291 290 289 288 286 284 281 279 279 279 278
238 239 240 241 242 243 241 240 240 241 241 244 249 251 251 252 254 255 257 260 261 259 257 257 256 255 255 255 256 257 257 256 257 260 262 261 259 259 262 266 267 268 270 272 273 273 273 273 274 275 275 276 277 278 279 280 280 280 280 280 280 281 281 282 282 283 284 285 285 286 286 287 289 290 290 290 289 287 286 284 281 279 278 278 278 277
242 242 243 244 245 244 242 242 244 245 244 246 247 244 246 249 249 250 252 252 254 258 260 261 260 258 257 257 256 255 254 254 256 259 259 257 257 260 263 264 264 266 268 270 271 271 272 272 272 273 273 274 275 276 277 278 279 280 280 280 280 281 282 283 284 285 286 287 287 287 287 287 287 288 288 287 286 285 284 283 281 278 277 278 278 277
247 247 248 250 251 250 249 248 250 249 246 244 242 241 243 245 245 249 251 250 253 260 264 265 265 264 262 260 258 257 256 255 255 255 255 253 254 257 259 261 263 265 266 267 269 269 270 270 271 272 272 273 274 274 275 276 278 279 279 280 280 281 282 283 285 286 287 288 288 288 288 287 286 286 285 285 285 285 285 285 283 280 278 278 278 277
248 249 251 252 253 253 253 254 255 254 250 245 243 244 245 245 248 254 257 255 255 260 262 264 265 265 264 264 263 261 260 257 254 253 254 254 253 254 256 259 262 264 265 266 267 268 268 269 270 271 272 272 273 274 275 276 277 278 279 279 279 279 279 281 284 287 288 289 289 289 288 287 286 285 285 285 285 285 286 286 285 282 279 278 278 278
248 249 251 252 252 252 254 256 257 258 253 246 245 249 250 250 253 257 260 259 257 258 262 264 266 267 267 267 266 264 263 261 258 257 258 259 258 258 260 262 264 265 265 265 265 267 268 270 271 272 272 272 272 272 273 274 275 276 276 276 276 276 276 278 280 283 286 287 288 289 289 288 287 286 286 286 286 286 286 286 286 284 281 279 278 278
247 248 249 251 251 252 254 255 257 259 256 249 249 254 256 257 259 261 264 263 259 259 262 264 266 267 267 267 267 266 265 265 263 262 264 266 266 265 266 266 267 267 267 266 267 267 268 269 271 271 272 272 272 272 272 273 274 274 274 274 273 273 273 275 277 278 281 283 284 285 286 286 286 286 285 285 285 285 285 285 285 285 283 281 279 278
248 248 248 250 252 253 255 257 257 259 259 255 255 258 260 262 264 264 265 264 263 262 264 265 267 268 268 268 268 268 268 268 267 266 266 268 268 268 269 269 269 269 269 269 269 269 269 270 270 271 271 271 271 272 272 273 274 274 273 273 272 272 272 273 275 276 278 279 281 282 282 283 283 283 283 283 283 283 283 283 283 284 284 283 281 279
249 250 251 251 253 254 256 258 260 260 259 258 258 260 261 263 264 264 265 267 267 266 266 267 268 269 269 270 270 270 270 270 269 268 268 268 269 269 269 269 269 270 270 270 270 270 270 270 271 271 271 271 272 272 273 273 273 273 273 272 272 272 272 272 273 275 276 278 279 280 281 280 280 280 279 279 280 280 281 281 282 282 282 282 281 280
249 251 252 253 255 256 257 259 261 260 259 258 259 260 261 263 264 265 267 268 269 269 269 269 270 270 271 271 270 271 271 271 271 270 270 270 270 271 271 271 271 271 271 271 271 271 270 270 270 271 271 271 271 272 272 272 272 272 272 272 271 271 271 271 272 273 275 276 278 278 279 279 278 278 277 277 277 278 279 280 281 281 282 281 281 281
250 251 253 254 256 257 258 258 259 262 262 261 260 261 261 262 264 266 267 268 268 269 270 270 271 271 271 271 271 272 272 272 273 273 273 273 273 273 273 273 273 273 273 273 272 272 272 272 271 271 271 271 271 271 272 272 272 272 272 272 272 271 271 271 272 272 273 275 276 277 277 277 277 277 276 276 277 278 279 279 280 281 281 281 282 282
251 252 254 255 255 257 258 260 262 265 266 263 261 261 261 263 265 267 268 269 270 270 270 271 272 272 272 272 273 273 274 274 274 275 275 275 275 275 275 275 275 274 274 274 274 274 273 273 273 273 273 273 273 273 273 273 273 273 273 273 273 273 273 273 273 273 274 274 275 276 276 276 276 276 276 276 277 277 278 279 280 280 281 281 282 282
253 254 256 257 257 258 259 260 262 264 264 263 263 263 264 265 266 268 269 270 271 271 272 272 273 273 273 273 274 274 275 275 275 275 275 275 275 276 276 276 276 275 275 275 275 275 275 275 274 274 274 275 275 275 275 275 275 275 275 275 275 275 275 275 275 275 275 276 276 276 276 276 276 276 276 276 276 277 278 278 279 280 281 281 282 282
254 255 256 257 258 258 259 260 262 264 264 265 265 265 266 267 268 268 269 270 270 271 271 272 272 272 273 273 274 275 275 275 275 275 275 275 276 276 275 275 275 274 274 275 275 275 276 276 276 275 275 275 276 276 276 277 277 277 277 277 277 277 278 278 278 278 278 278 278 278 278 278 278 278 278 278 277 277 278 279 280 281 281 282 282 283
255 256 257 258 259 260 261 263 264 265 265 265 265 265 266 267 268 268 269 269 269 269 269 270 270 271 272 273 274 274 274 274 274 274 274 275 275 275 275 274 274 274 275 275 275 276 276 276 276 276 276 276 276 276 276 276 276 276 276 276 276 276 276 276 277 278 278 279 279 279 279 279 279 279 279 279 279 280 281 281 282 282 281 281 281 282
257 257 258 259 260 261 263 264 265 265 265 265 265 266 266 267 267 267 267 268 268 268 269 269 270 270 271 272 273 273 273 273 273 273 273 273 273 273 273 273 273 274 274 274 275 275 275 275 275 275 275 275 275 276 276 276 276 276 275 275 274 274 274 275 276 276 277 277 277 278 278 278 279 279 280 281 282 283 283 284 283 283 282 282 282 282
258 258 259 261 262 263 264 265 266 265 265 265 265 266 266 266 266 266 267 268 269 269 269 269 269 270 270 270 271 271 272 272 272 272 272 272 272 272 272 272 272 272 272 273 273 273 273 273 273 273 273 274 274 274 275 275 275 274 274 274 273 274 275 276 276 276 276 276 276 277 277 278 279 280 281 282 282 283 283 283 283 283 283 283 283 283
259 260 262 262 263 263 264 264 265 264 265 265 266 266 265 265 265 266 268 268 269 269 270 270 270 270 270 270 270 270 271 272 272 273 273 273 273 273 272 272 272 272 272 271 271 271 271 271 271 271 271 271 271 272 272 272 272 272 272 272 272 273 275 277 277 277 277 276 276 277 277 278 279 280 281 282 283 283 283 282 282 282 282 282 283 284
259 261 262 262 262 262 262 262 263 263 263 264 264 264 264 265 266 266 267 267 268 268 269 269 269 270 270 270 271 271 271 272 272 273 273 274 274 274 274 273 273 273 272 272 272 271 271 271 271 271 270 270 270 270 269 269 269 269 269 269 271 273 275 276 277 277 276 277 277 277 278 279 280 281 281 282 281 278 277 276 276 276 276 277 277 278
Height
5824 5826 5828 5829 5831 5832 5834 5835 5836 5837 5839 5841 5843 5845 5845 5847 5849 5851 5852 5854 5854 5855 5856 5857 5860 5862 5863 5863 5863 5864 5866 5868 5868 5869 5869 5869 5870 5870 5871 5871 5872 5873 5873 5873 5874 5873 5873 5873 5873 5872 5872 5872 5872 5871 5870 5870 5869 5869 5868 5867 5866 5865 5864 5863 5862 5861 5860 5859 5859 5858 5858 5857 5857 5856 5855 5853 5852 5851 5851 5850 5850 5849 5848 5848 5847 5846
5822 5823 5825 5827 5828 5829 5831 5832 5834 5835 5838 5840 5841 5842 5843 5844 5846 5848 5849 5851 5851 5852 5854 5855 5857 5860 5861 5861 5861 5862 5864 5866 5866 5867 5867 5868 5868 5869 5869 5869 5870 5870 5871 5871 5872 5872 5872 5871 5870 5870 5870 5870 5870 5869 5868 5868 5867 5867 5866 5866 5865 5864 5863 5862 5860 5859 5858 5857 5856 5856 5855 5855 5854 5853 5852 5851 5850 5848 5847 5847 5847 5846 5845 5844 5843 5843
5819 5821 5822 5823 5825 5827 5828 5830 5832 5833 5835 5837 5838 5840 5841 5842 5843 5845 5846 5848 5849 5850 5851 5852 5854 5858 5859 5859 5860 5860 5861 5864 5864 5865 5866 5866 5867 5867 5867 5868 5868 5868 5868 5869 5870 5870 5870 5869 5868 5868 5868 5868 5867 5867 5866 5866 5865 5865 5864 5863 5863 5862 5861 5860 5859 5858 5856 5855 5854 5853 5853 5852 5851 5850 5850 5849 5848 5846 5845 5844 5843 5842 5842 5841 5840 5840
5817 5818 5819 5821 5823 5825 5826 5827 5829 5831 5833 5834 5836 5837 5839 5840 5841 5841 5843 5845 5846 5847 5848 5849 5851 5855 5857 5857 5858 5858 5859 5861 5862 5863 5864 5864 5865 5865 5865 5866 5866 5866 5866 5866 5867 5867 5867 5867 5866 5866 5865 5865 5865 5865 5864 5864 5863 5863 5862 5861 5860 5860 5859 5858 5857 5856 5854 5853 5852 5851 5850 5849 5849 5848 5847 5846 5845 5844 5843 5842 5840 5839 5838 5838 5837 5836
5813 5815 5816 5818 5820 5822 5823 5825 5827 5828 5830 5831 5833 5835 5836 5837 5837 5838 5840 5842 5843 5844 5845 5847 5848 5852 5854 5854 5856 5856 5856 5859 5860 5861 5862 5862 5863 5863 5863 5864 5863 5864 5864 5864 5864 5864 5864 5864 5864 5864 5863 5863 5862 5862 5862 5861 5861 5860 5859 5859 5858 5857 5856 5856 5855 5853 5852 5851 5850 5849 5848 5847 5846 5845 5844 5843 5842 5841 5841 5839 5838 5836 5835 5834 5833 5832
5810 5812 5814 5815 5817 5819 5821 5822 5824 5826 5827 5828 5831 5832 5833 5834 5835 5836 5838 5839 5840 5841 5843 5844 5844 5848 5852 5852 5853 5854 5854 5856 5857 5858 5860 5860 5861 5861 5861 5862 5861 5861 5862 5862 5862 5862 5862 5862 5861 5861 5860 5860 5860 5859 5859 5858 5858 5858 5857 5856 5856 5855 5854 5853 5852 5851 5850 5849 5848 5846 5845 5844 5843 5843 5842 5840 5839 5838 5838 5836 5835 5834 5832 5831 5830 5829
5808 5809 5811 5813 5815 5817 5818 5820 5821 5823 5824 5825 5827 5829 5830 5831 5832 5833 5835 5836 5837 5839 5841 5842 5841 5843 5848 5850 5850 5851 5851 5853 5854 5856 5857 5858 5858 5859 5859 5859 5859 5859 5859 5859 5860 5860 5859 5859 5858 5858 5857 5857 5856 5856 5856 5856 5855 5855 5854 5854 5853 5852 5852 5851 5850 5849 5848 5846 5845 5844 5843 5842 5841 5840 5839 5838 5837 5835 5834 5833 5832 5830 5829 5827 5826 5825
5805 5807 5808 5810 5812 5814 5816 5816 5818 5819 5821 5822 5824 5826 5827 5828 5829 5830 5831 5833 5834 5836 5838 5839 5838 5839 5844 5848 5848 5848 5849 5850 5852 5854 5854 5855 5856 5856 5856 5856 5856 5856 5856 5856 5856 5856 5857 5856 5856 5855 5854 5854 5853 5853 5853 5853 5852 5852 5852 5851 5850 5850 5849 5848 5847 5846 5845 5844 5843 5841 5840 5839 5838 5837 5836 5835 5834 5833 5831 5830 5829 5827 5825 5823 5822 5821
5801 5803 5805 5807 5809 5810 5812 5813 5814 5816 5817 5819 5821 5822 5823 5825 5826 5827 5828 5829 5831 5833 5834 5837 5837 5835 5838 5845 5846 5845 5846 5848 5850 5851 5851 5852 5853 5853 5853 5853 5853 5853 5853 5853 5853 5853 5853 5853 5853 5852 5851 5851 5850 5850 5849 5849 5849 5849 5849 5848 5847 5847 5846 5845 5844 5844 5843 5841 5840 5839 5838 5837 5835 5834 5833 5832 5830 5829 5828 5827 5825 5824 5822 5820 5819 5817
5798 5799 5801 5804 5805 5807 5808 5809 5811 5812 5813 5815 5817 5818 5820 5821 5822 5823 5824 5826 5827 5829 5831 5834 5835 5832 5832 5840 5844 5842 5844 5846 5848 5848 5848 5849 5850 5850 5850 5850 5850 5850 5850 5850 5849 5849 5849 5850 5849 5849 5848 5848 5847 5847 5846 5845 5846 5846 5846 5845 5844 5844 5843 5842 5841 5841 5840 5839 5837 5836 5835 5834 5832 5831 5830 5828 5827 5826 5825 5824 5822 5820 5818 5817 5815 5814
5794 5796 5798 5800 5802 5804 5805 5806 5807 5809 5810 5812 5813 5814 5816 5817 5819 5820 5821 5823 5824 5825 5828 5830 5833 5831 5827 5833 5841 5841 5841 5843 5844 5845 5846 5846 5847 5846 5846 5847 5847 5847 5846 5846 5846 5846 5846 5846 5845 5845 5845 5845 5844 5844 5842 5842 5842 5842 5842 5841 5841 5840 5839 5839 5838 5838 5837 5836 5834 5833 5832 5831 5829 5828 5827 5825 5824 5822 5821 5820 5818 5816 5814 5813 5812 5810
5790 5792 5794 5795 5798 5800 5801 5802 5803 5805 5806 5808 5809 5810 5812 5813 5815 5816 5818 5819 5820 5822 5825 5826 5829 5828 5823 5828 5837 5839 5839 5841 5841 5842 5842 5842 5843 5843 5843 5843 5843 5842 5842 5843 5842 5842 5842 5842 5842 5842 5842 5841 5841 5840 5839 5838 5838 5838 5838 5837 5837 5836 5836 5835 5835 5834 5833 5832 5831 5830 5829 5827 5826 5825 5823 5822 5820 5819 5817 5816 5814 5812 5810 5808 5807 5806
5786 5788 5790 5791 5793 5795 5797 5798 5799 5801 5802 5803 5805 5806 5807 5808 5810 5813 5814 5815 5816 5819 5821 5821 5824 5825 5822 5825 5831 5834 5837 5838 5837 5838 5839 5839 5840 5840 5839 5839 5839 5838 5838 5838 5838 5838 5839 5838 5838 5838 5838 5837 5837 5837 5836 5834 5833 5833 5833 5833 5833 5832 5832 5831 5831 5830 5829 5828 5827 5826 5825 5824 5823 5821 5820 5819 5817 5815 5814 5812 5810 5808 5806 5804 5802 5800
5781 5783 5785 5787 5789 5791 5793 5794 5796 5797 5797 5799 5801 5802 5803 5804 5806 5808 5810 5811 5813 5815 5816 5817 5819 5820 5821 5823 5825 5828 5834 5835 5834 5835 5835 5835 5836 5835 5835 5834 5834 5834 5834 5834 5834 5834 5835 5834 5834 5833 5833 5833 5833 5833 5832 5830 5829 5828 5828 5828 5828 5827 5827 5827 5827 5826 5825 5824 5823 5822 5821 5820 5819 5818 5816 5815 5813 5812 5810 5808 5806 5804 5801 5799 5797 5795
5775 5777 5780 5782 5784 5786 5788 5790 5791 5792 5793 5794 5796 5797 5799 5801 5802 5804 5805 5806 5809 5811 5811 5812 5814 5816 5819 5821 5820 5822 5828 5832 5832 5831 5830 5831 5831 5831 5830 5829 5829 5829 5829 5829 5830 5830 5830 5829 5829 5828 5828 5828 5828 5828 5827 5826 5825 5823 5823 5823 5823 5822 5822 5823 5822 5821 5820 5819 5818 5817 5817 5816 5814 5813 5812 5810 5809 5807 5805 5803 5801 5799 5796 5794 5791 5789
5770 5772 5776 5777 5779 5782 5783 5784 5785 5786 5788 5789 5790 5793 5796 5798 5799 5798 5799 5802 5804 5805 5806 5808 5809 5812 5815 5817 5817 5817 5822 5826 5827 5826 5826 5827 5827 5827 5825 5823 5824 5824 5825 5826 5826 5825 5825 5824 5824 5823 5823 5823 5823 5823 5823 5822 5820 5819 5818 5817 5817 5817 5817 5817 5817 5816 5815 5814 5813 5813 5812 5811 5810 5808 5806 5805 5804 5802 5800 5798 5795 5793 5791 5789 5786 5784
5765 5767 5770 5772 5774 5777 5778 5779 5780 5782 5783 5784 5786 5790 5793 5794 5793 5793 5794 5797 5798 5798 5801 5804 5806 5809 5811 5812 5813 5814 5815 5819 5820 5821 5823 5823 5822 5821 5819 5819 5819 5820 5820 5821 5821 5821 5819 5819 5819 5818 5818 5819 5818 5818 5818 5817 5816 5814 5813 5812 5812 5811 5811 5812 5811 5810 5810 5809 5808 5807 5807 5805 5804 5803 5801 5800 5798 5796 5794 5792 5789 5787 5785 5783 5781 5778
5759 5760 5763 5766 5768 5770 5772 5773 5774 5777 5778 5779 5783 5787 5787 5786 5787 5787 5788 5791 5791 5792 5796 5800 5802 5805 5807 5806 5808 5811 5811 5811 5813 5815 5817 5817 5816 5815 5815 5815 5816 5815 5816 5816 5816 5815 5814 5813 5813 5813 5813 5813 5813 5813 5812 5811 5810 5809 5808 5808 5807 5806 5806 5806 5805 5804 5804 5803 5803 5802 5801 5800 5798 5797 5796 5794 5792 5790 5788 5785 5782 5780 5778 5776 5774 5772
5753 5754 5757 5760 5762 5764 5765 5766 5768 5772 5774 5775 5778 5780 5780 5780 5781 5782 5783 5785 5787 5786 5789 5795 5797 5799 5803 5803 5804 5806 5806 5806 5807 5808 5809 5810 5809 5810 5811 5811 5811 5811 5811 5811 5811 5810 5809 5808 5808 5807 5807 5806 5806 5806 5806 5805 5804 5804 5803 5803 5802 5801 5801 5800 5799 5798 5798 5797 5797 5796 5795 5793 5792 5791 5790 5788 5787 5784 5781 5778 5775 5774 5772 5770 5768 5766
5746 5748 5750 5754 5757 5757 5758 5761 5765 5767 5768 5770 5772 5773 5774 5775 5775 5776 5777 5779 5781 5781 5783 5789 5790 5793 5800 5802 5800 5800 5801 5801 5801 5801 5801 5802 5802 5804 5805 5805 5805 5805 5805 5805 5805 5805 5804 5803 5803 5802 5801 5801 5800 5800 5799 5799 5798 5798 5798 5798 5797 5796 5795 5794 5793 5792 5792 5792 5791 5789 5788 5787 5786 5785 5784 5783 5781 5778 5775 5771 5769 5767 5766 5764 5762 5759
5738 5740 5744 5747 5749 5750 5753 5758 5761 5761 5761 5764 5766 5767 5769 5770 5770 5770 5771 5772 5775 5776 5778 5780 5782 5788 5797 5799 5796 5795 5795 5796 5796 5795 5795 5795 5795 5796 5797 5798 5798 5798 5799 5799 5799 5799 5799 5798 5797 5796 5795 5794 5794 5794 5793 5793 5793 5793 5792 5792 5792 5790 5789 5788 5786 5785 5785 5785 5784 5783 5781 5780 5779 5779 5778 5777 5775 5772 5769 5766 5763 5761 5759 5757 5755 5752
5732 5733 5737 5739 5741 5746 5750 5752 5753 5753 5754 5757 5759 5760 5763 5764 5763 5763 5763 5765 5768 5769 5771 5772 5774 5783 5793 5794 5793 5792 5790 5790 5789 5788 5788 5788 5788 5789 5790 5790 5790 5791 5791 5791 5792 5793 5792 5791 5790 5788 5788 5787 5787 5787 5787 5787 5787 5787 5786 5786 5785 5784 5782 5781 5780 5780 5779 5778 5777 5775 5773 5772 5771 5772 5772 5771 5769 5766 5763 5759 5757 5754 5751 5750 5748 5746
5726 5727 5730 5732 5736 5741 5743 5742 5743 5745 5747 5749 5751 5754 5756 5756 5755 5756 5756 5759 5760 5761 5765 5765 5765 5778 5789 5790 5790 5788 5785 5784 5782 5781 5782 5781 5782 5782 5781 5781 5781 5782 5782 5782 5784 5785 5784 5783 5782 5781 5781 5781 5780 5780 5780 5780 5780 5780 5779 5778 5777 5777 5776 5775 5774 5773 5772 5771 5769 5767 5765 5764 5764 5764 5765 5765 5763 5760 5757 5753 5749 5747 5744 5742 5740 5738
5720 5720 5723 5726 5729 5732 5734 5733 5736 5738 5740 5742 5745 5748 5749 5748 5750 5749 5749 5752 5751 5752 5759 5757 5757 5772 5784 5785 5786 5784 5780 5778 5776 5777 5778 5776 5775 5774 5773 5772 5772 5773 5774 5774 5775 5775 5774 5773 5772 5772 5773 5773 5773 5773 5772 5773 5773 5772 5772 5770 5770 5770 5769 5768 5767 5766 5765 5763 5761 5759 5758 5758 5757 5756 5756 5756 5755 5753 5750 5745 5742 5739 5737 5735 5733 5731
5714 5715 5717 5720 5721 5724 5726 5727 5729 5731 5733 5736 5739 5742 5743 5743 5743 5741 5742 5744 5742 5746 5753 5748 5749 5768 5780 5780 5780 5779 5775 5772 5770 5772 5774 5771 5769 5768 5766 5764 5764 5765 5766 5765 5765 5765 5764 5764 5764 5764 5764 5765 5765 5765 5765 5765 5764 5765 5765 5764 5763 5763 5762 5761 5759 5758 5756 5755 5754 5753 5752 5751 5751 5750 5749 5748 5747 5745 5742 5738 5734 5732 5730 5728 5726 5725
5708 5708 5710 5713 5714 5716 5720 5721 5723 5727 5728 5729 5733 5736 5737 5738 5736 5736 5737 5735 5735 5743 5747 5740 5743 5762 5773 5773 5772 5772 5769 5765 5763 5766 5768 5766 5765 5763 5761 5758 5757 5757 5757 5756 5755 5754 5754 5755 5755 5756 5756 5756 5756 5756 5756 5756 5756 5757 5757 5757 5756 5755 5754 5753 5751 5750 5749 5748 5747 5746 5744 5744 5744 5743 5742 5741 5739 5736 5733 5730 5727 5725 5723 5721 5719 5718
5701 5702 5704 5706 5708 5712 5715 5714 5717 5721 5721 5721 5726 5729 5729 5729 5729 5730 5729 5727 5732 5737 5736 5735 5741 5751 5761 5766 5766 5766 5763 5757 5757 5760 5759 5759 5760 5758 5756 5753 5751 5749 5747 5746 5746 5746 5745 5745 5745 5747 5748 5748 5747 5747 5747 5748 5749 5749 5749 5749 5748 5747 5745 5744 5743 5743 5742 5741 5740 5738 5736 5735 5735 5735 5733 5732 5730 5727 5724 5722 5720 5718 5716 5714 5713 5711
5695 5696 5698 5701 5704 5707 5708 5707 5711 5714 5714 5715 5719 5720 5721 5721 5721 5722 5722 5725 5731 5728 5725 5734 5739 5738 5746 5757 5759 5759 5755 5750 5752 5754 5751 5751 5753 5751 5749 5747 5745 5743 5740 5738 5738 5739 5738 5737 5737 5739 5739 5738 5738 5739 5741 5741 5741 5741 5741 5741 5741 5739 5738 5737 5736 5736 5735 5734 5733 5731 5729 5726 5726 5726 5724 5723 5721 5718 5716 5714 5712 5711 5709 5707 5706 5704
5689 5690 5694 5697 5699 5702 5703 5702 5705 5708 5708 5709 5711 5713 5713 5713 5714 5715 5718 5723 5725 5718 5719 5731 5732 5726 5735 5747 5751 5752 5748 5744 5747 5748 5745 5744 5743 5742 5740 5738 5737 5737 5735 5734 5732 5731 5731 5732 5733 5732 5730 5729 5730 5732 5733 5734 5734 5733 5733 5733 5732 5731 5730 5729 5729 5729 5728 5726 5726 5724 5720 5718 5717 5717 5715 5714 5713 5710 5708 5707 5705 5704 5702 5700 5699 5698
5682 5685 5689 5691 5692 5695 5698 5698 5700 5701 5700 5701 5703 5704 5705 5706 5708 5711 5713 5716 5715 5711 5714 5723 5722 5720 5729 5737 5740 5743 5741 5737 5738 5739 5739 5739 5736 5733 5731 5729 5729 5730 5730 5729 5727 5724 5724 5725 5725 5724 5724 5724 5724 5724 5725 5726 5726 5725 5725 5724 5723 5722 5721 5719 5719 5719 5718 5717 5717 5715 5712 5710 5709 5708 5707 5706 5704 5702 5701 5699 5698 5697 5696 5694 5692 5691
5676 5678 5682 5683 5682 5686 5692 5695 5693 5693 5693 5693 5694 5696 5698 5700 5704 5705 5707 5709 5707 5705 5711 5714 5711 5715 5725 5728 5727 5733 5733 5729 5728 5730 5733 5734 5730 5725 5721 5719 5721 5724 5724 5723 5721 5720 5719 5717 5716 5715 5716 5717 5717 5716 5717 5717 5717 5717 5717 5716 5715 5714 5712 5711 5711 5711 5709 5709 5708 5706 5704 5703 5701 5700 5699 5698 5697 5695 5693 5692 5691 5691 5689 5688 5686 5685
5670 5672 5675 5677 5674 5679 5688 5689 5686 5686 5685 5683 5685 5691 5695 5696 5697 5699 5701 5701 5701 5701 5704 5703 5700 5707 5719 5719 5715 5720 5724 5721 5721 5723 5725 5726 5723 5716 5711 5711 5715 5717 5717 5715 5714 5715 5714 5711 5709 5708 5708 5709 5708 5708 5708 5708 5709 5710 5709 5709 5708 5707 5706 5705 5705 5704 5703 5701 5700 5698 5697 5696 5694 5694 5692 5691 5689 5688 5687 5686 5685 5684 5683 5681 5680 5678
5665 5665 5668 5670 5667 5674 5683 5681 5678 5677 5670 5671 5684 5693 5694 5693 5692 5692 5692 5693 5695 5696 5694 5692 5694 5701 5708 5707 5706 5710 5714 5714 5715 5716 5718 5718 5713 5706 5704 5709 5710 5708 5707 5707 5709 5710 5709 5706 5705 5704 5703 5702 5700 5700 5700 5700 5701 5702 5702 5701 5701 5700 5699 5698 5697 5697 5696 5695 5693 5691 5690 5689 5688 5687 5685 5684 5682 5681 5681 5680 5679 5677 5676 5675 5673 5672
5658 5659 5661 5661 5661 5668 5674 5672 5669 5663 5658 5670 5688 5692 5689 5689 5687 5685 5685 5687 5689 5687 5684 5684 5687 5692 5696 5698 5700 5702 5704 5705 5706 5710 5712 5708 5701 5699 5703 5706 5704 5700 5699 5701 5703 5703 5701 5700 5699 5699 5698 5696 5694 5693 5692 5692 5693 5694 5694 5694 5693 5692 5691 5690 5689 5689 5688 5687 5686 5684 5683 5682 5681 5680 5678 5677 5676 5675 5674 5673 5672 5671 5669 5668 5667 5666
5651 5652 5653 5653 5654 5660 5664 5662 5656 5651 5657 5675 5685 5683 5683 5684 5681 5678 5679 5681 5681 5678 5676 5676 5679 5684 5688 5690 5692 5693 5695 5697 5699 5704 5704 5696 5693 5697 5700 5698 5696 5695 5695 5694 5694 5694 5693 5692 5692 5692 5692 5690 5689 5687 5686 5685 5685 5685 5686 5685 5684 5684 5683 5682 5681 5681 5679 5679 5678 5677 5676 5675 5674 5674 5672 5671 5669 5668 5667 5666 5665 5664 5662 5661 5660 5658
5643 5644 5646 5646 5648 5650 5652 5650 5646 5647 5658 5671 5675 5678 5680 5678 5674 5671 5669 5672 5673 5670 5668 5669 5671 5676 5679 5680 5682 5684 5687 5691 5694 5696 5692 5687 5689 5693 5692 5690 5688 5688 5689 5688 5686 5686 5685 5684 5684 5685 5685 5684 5683 5681 5680 5679 5678 5678 5678 5677 5676 5676 5675 5674 5674 5673 5671 5671 5670 5669 5668 5667 5667 5666 5665 5664 5663 5661 5660 5659 5657 5656 5654 5653 5652 5651
5636 5638 5639 5639 5639 5641 5641 5641 5641 5643 5650 5660 5670 5675 5674 5669 5667 5662 5657 5661 5665 5661 5660 5662 5663 5666 5669 5671 5674 5677 5679 5682 5686 5687 5681 5679 5684 5686 5684 5684 5682 5680 5682 5681 5679 5678 5677 5676 5677 5678 5678 5678 5676 5674 5673 5673 5672 5671 5671 5670 5669 5668 5668 5667 5667 5665 5664 5663 5662 5661 5660 5659 5659 5658 5657 5656 5655 5654 5652 5651 5649 5648 5646 5645 5644 5642
5629 5630 5632 5631 5631 5634 5633 5633 5634 5632 5638 5656 5669 5670 5664 5660 5656 5650 5645 5649 5654 5655 5655 5656 5656 5658 5661 5663 5665 5668 5670 5671 5675 5678 5673 5671 5677 5680 5678 5678 5677 5674 5675 5675 5673 5672 5671 5670 5670 5670 5670 5670 5670 5668 5666 5666 5666 5665 5665 5663 5662 5661 5661 5660 5659 5658 5657 5656 5654 5653 5652 5651 5650 5649 5648 5647 5646 5645 5644 5642 5641 5640 5639 5637 5636 5634
5621 5622 5624 5622 5622 5626 5626 5625 5625 5624 5633 5653 5663 5659 5654 5650 5645 5640 5636 5637 5645 5651 5650 5649 5649 5650 5652 5653 5655 5657 5659 5660 5665 5670 5666 5662 5668 5671 5670 5670 5670 5668 5668 5667 5666 5666 5665 5664 5664 5663 5663 5662 5662 5661 5659 5658 5658 5658 5658 5656 5654 5654 5653 5651 5650 5650 5649 5648 5646 5645 5645 5643 5642 5641 5640 5638 5637 5635 5634 5633 5632 5631 5630 5628 5627 5625
5612 5614 5615 5613 5615 5619 5619 5616 5617 5620 5630 5647 5652 5648 5644 5639 5634 5630 5626 5629 5639 5645 5642 5641 5641 5641 5642 5643 5645 5647 5648 5649 5654 5660 5658 5655 5658 5660 5660 5660 5661 5660 5659 5659 5658 5657 5657 5658 5657 5657 5656 5654 5654 5653 5652 5650 5650 5649 5649 5648 5647 5646 5644 5642 5642 5641 5640 5639 5638 5637 5636 5635 5634 5633 5631 5629 5628 5626 5625 5624 5622 5621 5620 5619 5617 5615
5605 5606 5606 5607 5609 5613 5612 5609 5610 5614 5625 5638 5641 5638 5634 5628 5621 5617 5618 5625 5632 5634 5633 5634 5632 5631 5633 5634 5635 5637 5638 5638 5642 5647 5648 5647 5647 5649 5650 5650 5650 5650 5649 5649 5648 5647 5648 5649 5649 5648 5648 5646 5645 5645 5643 5641 5641 5641 5640 5639 5639 5638 5636 5634 5633 5632 5630 5629 5628 5627 5626 5625 5624 5623 5621 5619 5618 5616 5615 5613 5612 5611 5609 5608 5607 5605
5598 5599 5599 5600 5603 5605 5605 5604 5602 5605 5618 5629 5631 5628 5624 5617 5610 5609 5614 5619 5622 5621 5624 5625 5623 5622 5624 5624 5625 5627 5629 5629 5631 5634 5636 5637 5636 5637 5639 5639 5639 5640 5639 5638 5638 5637 5637 5639 5640 5639 5638 5637 5635 5635 5633 5632 5632 5631 5630 5630 5629 5628 5626 5625 5624 5623 5621 5620 5618 5617 5616 5615 5613 5612 5611 5609 5608 5606 5604 5603 5601 5600 5599 5598 5597 5595
5592 5592 5592 5595 5598 5598 5597 5596 5594 5598 5612 5622 5621 5617 5613 5607 5603 5603 5606 5609 5612 5613 5614 5615 5614 5613 5613 5614 5615 5616 5618 5621 5621 5621 5624 5626 5626 5626 5627 5628 5628 5629 5628 5627 5627 5626 5625 5627 5628 5627 5626 5625 5624 5623 5622 5621 5621 5620 5619 5618 5618 5617 5616 5616 5614 5613 5612 5610 5608 5607 5605 5604 5603 5601 5600 5599 5597 5595 5594 5592 5591 5590 5588 5587 5586 5585
5583 5585 5586 5589 5592 5590 5588 5589 5590 5595 5604 5609 5609 5606 5602 5599 5598 5596 5596 5599 5602 5604 5605 5606 5605 5604 5603 5603 5605 5606 5609 5611 5612 5613 5614 5615 5616 5616 5616 5617 5617 5617 5617 5616 5614 5614 5614 5615 5616 5616 5614 5613 5612 5611 5610 5609 5609 5609 5608 5607 5606 5605 5604 5604 5602 5602 5601 5599 5598 5596 5594 5593 5592 5590 5589 5588 5586 5585 5583 5581 5580 5579 5578 5577 5576 5574
5576 5579 5580 5582 5583 5582 5582 5584 5586 5590 5593 5596 5598 5597 5595 5593 5591 5589 5589 5591 5593 5594 5596 5597 5597 5595 5593 5593 5594 5598 5601 5602 5603 5604 5604 5604 5606 5606 5606 5606 5606 5606 5606 5606 5604 5603 5603 5603 5604 5604 5604 5602 5600 5599 5598 5597 5597 5597 5597 5595 5594 5594 5593 5592 5591 5590 5589 5588 5586 5585 5583 5582 5581 5579 5578 5577 5575 5574 5572 5571 5570 5569 5567 5566 5565 5563
5571 5572 5571 5572 5574 5574 5575 5577 5580 5583 5584 5586 5588 5589 5587 5586 5584 5582 5582 5583 5585 5586 5587 5588 5588 5587 5585 5584 5585 5589 5591 5592 5593 5594 5593 5594 5595 5596 5596 5596 5597 5596 5596 5596 5595 5594 5593 5593 5593 5593 5593 5593 5590 5589 5588 5587 5586 5586 5585 5584 5583 5583 5582 5581 5580 5579 5578 5577 5576 5574 5573 5572 5570 5568 5567 5566 5565 5563 5562 5560 5560 5558 5557 5555 5554 5552
5563 5564 5563 5564 5566 5567 5568 5571 5575 5576 5575 5576 5579 5580 5580 5578 5576 5574 5573 5573 5575 5578 5579 5579 5580 5580 5578 5577 5577 5578 5580 5582 5582 5582 5583 5584 5585 5586 5586 5585 5586 5586 5586 5585 5585 5584 5583 5583 5582 5582 5582 5582 5580 5579 5578 5577 5576 5575 5575 5574 5573 5573 5572 5571 5570 5569 5568 5567 5566 5565 5563 5562 5560 5559 5557 5556 5554 5552 5551 5550 5549 5547 5546 5544 5543 5541
5555 5556 5556 5556 5558 5560 5561 5565 5568 5567 5565 5567 5569 5571 5571 5570 5567 5564 5562 5563 5565 5568 5570 5571 5571 5571 5571 5571 5568 5566 5568 5570 5570 5570 5572 5573 5574 5575 5576 5575 5575 5576 5576 5574 5574 5573 5572 5572 5571 5571 5571 5571 5570 5568 5567 5567 5566 5565 5564 5563 5563 5562 5562 5561 5560 5559 5558 5557 5556 5555 5554 5552 5551 5549 5548 5546 5544 5543 5541 5540 5538 5536 5534 5533 5532 5531
5545 5545 5548 5550 5551 5552 5555 5557 5558 5556 5555 5556 5559 5561 5561 5559 5556 5554 5553 5554 5555 5557 5559 5561 5562 5561 5562 5561 5559 5556 5555 5557 5558 5558 5560 5562 5563 5564 5564 5565 5565 5565 5565 5564 5562 5561 5561 5560 5559 5559 5560 5560 5559 5558 5557 5556 5555 5554 5553 5553 5552 5552 5551 5551 5550 5550 5549 5548 5547 5545 5544 5543 5542 5540 5538 5537 5535 5533 5531 5529 5527 5525 5524 5522 5521 5521
5537 5537 5541 5542 5541 5543 5547 5548 5546 5544 5544 5547 5549 5550 5549 5547 5546 5547 5546 5546 5545 5546 5547 5549 5550 5550 5550 5550 5550 5548 5546 5546 5546 5546 5547 5550 5551 5551 5551 5552 5552 5553 5554 5553 5551 5550 5549 5548 5547 5548 5549 5548 5548 5547 5546 5546 5545 5544 5543 5542 5541 5541 5540 5540 5540 5539 5539 5538 5537 5536 5535 5534 5533 5531 5530 5527 5525 5523 5521 5519 5517 5515 5514 5513 5512 5511
5531 5531 5532 5531 5530 5532 5536 5536 5534 5532 5534 5538 5539 5537 5536 5537 5538 5539 5537 5536 5536 5535 5536 5537 5538 5539 5540 5540 5539 5536 5536 5537 5537 5535 5535 5537 5538 5538 5537 5538 5539 5540 5541 5540 5540 5540 5539 5537 5535 5535 5536 5536 5536 5535 5535 5535 5534 5533 5532 5531 5531 5530 5530 5530 5530 5529 5528 5528 5527 5527 5526 5525 5523 5522 5520 5518 5516 5514 5511 5510 5508 5507 5506 5505 5504 5503